Regional Weather Roundup
Issued by NWS Albany, NY

Home | Current Version | Previous Version | Text Only | Print | Product List | Glossary On
Versions: 1 2 3 4 5 6 7 8 9 10 11 12 13 14 15 16 17 18 19 20 21 22 23 24 25 26 27
000
ASUS41 KALY 211910
RWRALY

NEW YORK STATE HOURLY WEATHER ROUNDUP
NATIONAL WEATHER SERVICE ALBANY NY
200 PM EST TUE NOV 21 2017

NOTE: "FAIR" INDICATES FEW OR NO CLOUDS BELOW 12,000 FEET WITH NO
SIGNIFICANT WEATHER AND/OR NO OBSTRUCTIONS TO VISIBILITY.

NYZ032-033-038>043-046>054-057>066-NYZ062>081-082-084-212000-
EAST


CITY           SKY/WX    TMP DP  RH WIND       PRES   REMARKS
ALBANY         MOSUNNY   53  24  32 S14G31    29.90F
GLENS FALLS    SUNNY     53  25  33 S17G24    29.86F
POUGHKEEPSIE   SUNNY     57  27  31 VRB6      29.98F
NEWBURGH       MOSUNNY   57  28  33 SW14      30.00F
MONTGOMERY     SUNNY     57  26  30 SW16      29.97F
WHITE PLAINS   SUNNY     55  30  38 SW9G16    30.02F
ISLIP          PTSUNNY   57  38  48 S20G28    30.06F
NEW YORK CITY  PTSUNNY   59  29  31 SW14      30.04F
CENTRAL PARK   SUNNY     58  29  33 VRB6      30.06F
$$

NYZ005>009-017-018-044>046-055-056-212000-
CENTRAL


CITY           SKY/WX    TMP DP  RH WIND       PRES   REMARKS
FULTON         MOSUNNY   53  23  31 S13G20    29.77R
SYRACUSE       CLOUDY    51  24  34 S10       29.78R
ROME           CLOUDY    53  23  31 S10G16    29.82F
ELMIRA         SUNNY     58  22  24 SW18G29   29.81F
BINGHAMTON     SUNNY     52  21  29 S14G26    29.84F
MONTICELLO     SUNNY     54  22  28 S12G17    29.95F
$$

NYZ026>034-041>043-087-212000-
NORTH


CITY           SKY/WX    TMP DP  RH WIND       PRES   REMARKS
WATERTOWN      CLOUDY    50  25  37 S14G25    29.72F
FORT DRUM      NOT AVBL
OGDENSBURG     FAIR      50  25  36 SW15      29.70S
MASSENA        MOSUNNY   51  27  39 S18       29.71S
SARANAC LAKE   SUNNY     45  26  47 SW15      29.71F
PLATTSBURGH    CLOUDY    52  26  36 S13G21    29.74F
$$

NYZ001>004-010>016-019>021-085-212000-
WEST


CITY           SKY/WX    TMP DP  RH WIND       PRES   REMARKS
NIAGARA FALLS  SUNNY     54  30  40 SW31G48   29.72R
BUFFALO        MOSUNNY   54  31  41 SW22G31   29.74R
DUNKIRK        SUNNY     55  28  35 SW24G32   29.76S
JAMESTOWN      SUNNY     49  25  39 SW21G31   29.78S
WELLSVILLE     SUNNY     55  22  27 SW10G23   29.80S
ROCHESTER      MOSUNNY   57  25  29 SW24G37   29.74R
PENN YAN         N/A     55  22  27 S13G23    29.77S
$$

             KEY
       WCI = WIND CHILL INDEX
       VSB = VISIBILITY
       HX  = HEAT INDEX
$$




USA.gov is the U.S. government's official web portal to all federal, state and local government web resources and services.